Location: Unspecified
(0.0000°N, 0.0000°E)
Time: 14:58:59
(UTC+01:00)

GPS 2-12 Rocket1 - Visible Passes

Search period start: 30 January 2015 00:00
Search period end: 09 February 2015 00:00
Orbit: 590 x 658 km, 20.0° (Epoch: 28 January)

Date Brightness Start Highest point End Pass type
(mag) Time Alt. Az. Time Alt. Az. Time Alt. Az.
30 Jan 3.7 05:21:45 47° ENE 05:21:45 47° ENE 05:25:22 10° E visible
30 Jan 5.5 20:55:31 10° NW 20:57:25 12° NNW 20:57:25 12° NNW visible
31 Jan 2.8 05:38:16 75° WSW 05:38:34 81° SSW 05:43:02 10° ESE visible
01 Feb 3.6 05:54:47 33° WSW 05:56:09 44° SSW 06:00:24 10° SE visible
01 Feb 5.4 19:46:33 10° NW 19:49:00 14° NNW 19:51:21 10° NNE visible
02 Feb 6.0 04:34:10 13° ESE 04:34:10 13° ESE 04:34:36 10° ESE visible
02 Feb 4.5 06:11:16 16° WSW 06:13:47 25° SSW 06:17:29 10° SE visible
03 Feb 5.5 04:50:39 19° SE 04:50:39 19° SE 04:52:01 10° SE visible
03 Feb 5.1 06:28:42 10° SW 06:31:29 16° SSW 06:34:12 10° SSE visible
04 Feb 5.1 05:07:06 21° SSE 05:07:06 21° SSE 05:09:08 10° SE visible
04 Feb 5.5 06:48:32 10° SSW 06:49:17 10° SSW 06:49:57 10° S visible
05 Feb 5.1 05:23:33 17° S 05:23:33 17° S 05:25:55 10° SSE visible
06 Feb 5.4 05:39:58 11° SSW 05:40:47 11° SSW 05:42:03 10° S visible
